RADUGA 26 1 21016U 90112A 21062.76005948 -.00000305 00000-0 00000+0 0 9991 2 21016 14.4921 352.8199 0008391 53.8319 125.6135 1.00277341110875 SL-12 R/B(2) 1 21019U 90112D 21063.78237544 -.00000248 00000-0 00000+0 0 9992 2 21019 14.5411 352.9712 0026522 121.9392 65.1809 1.00013395100691